Regional Weather Roundup
Issued by NWS

Home | Current Version | Previous Version | Graphics & Text | Print | Product List | Glossary On
Versions: 1 2 3 4 5 6 7 8 9 10 11 12 13 14 15 16 17 18 19 20 21 22 23 24 25 26 27 28 29 30 31 32 33 34 35 36 37 38 39 40 41 42 43 44 45 46 47 48 49 50
000
ASUS45 KCYS 251310
RWRWY

WYOMING REGIONAL WEATHER ROUNDUP
NATIONAL WEATHER SERVICE CHEYENNE WY
700 AM MDT MON MAY 25 2015

NOTE:  "FAIR" INDICATES FEW OR NO CLOUDS BELOW 12,000 FEET
WITH NO SIGNIFICANT WEATHER AND/OR OBSTRUCTIONS TO VISIBILITY.

WYZ001-251400-
YELLOWSTONE NATIONAL PARK

CITY           SKY/WX    TMP DP  RH WIND       PRES   REMARKS
LK YELLOWSTONE   N/A     31  29  92 CALM      30.04S
W YELLOWSTONE  NOT AVBL

$$
WYZ002>013-054>058-071-098>099-251400-
NORTHERN WYOMING

CITY           SKY/WX    TMP DP  RH WIND       PRES   REMARKS
JACKSON        CLOUDY    41  39  93 CALM      29.99R
CODY           CLOUDY    48  43  81 CALM      29.95S
GREYBULL       CLOUDY    49  48  97 SE3       29.91R
WORLAND        CLOUDY    50  47  89 CALM      29.91S
SHERIDAN       CLOUDY    50  47  89 CALM      29.92S
BUFFALO        CLOUDY    47  44  90 NW5       29.93S
GILLETTE       LGT RAIN  50  48  93 N8        29.89S FOG
HULETT         LGT RAIN  50  48  93 N8        29.89R VSB 3/4
NEWCASTLE      PTSUNNY   50  43  76 N12       29.86S

$$
WYZ014>020-022>026-101>103-251400-
CENTRAL WYOMING

CITY           SKY/WX    TMP DP  RH WIND       PRES   REMARKS
BIG PINEY      CLOUDY    42  40  92 NE3       30.01R
PINEDALE       CLOUDY    41  39  93 CALM      30.01S
DUBOIS         PTSUNNY   36  32  87 NW9       29.98R WCI  29
LANDER         LGT RAIN  46  41  82 SW9       29.95S
RIVERTON       LGT RAIN  45  43  93 W6        29.96R
CASPER         CLOUDY    45  42  89 NW6       29.93R
DOUGLAS        LGT RAIN  47  46  97 NW13      29.90R

$$
WYZ021-027>030-104>119-251400-
SOUTHERN WYOMING

CITY           SKY/WX    TMP DP  RH WIND       PRES   REMARKS
EVANSTON       CLOUDY    41  40  96 SW10      30.00S
KEMMERER       CLOUDY    41  39  93 CALM      30.01R
FORT BRIDGER   CLOUDY    43  43 100 NW5       30.03R
ROCK SPRINGS   CLOUDY    42  39  89 E3        30.00R
DIXON          MIX PCPN  43  40  89 CALM      30.02R
RAWLINS        CLOUDY    42  39  89 W5        29.97R
SARATOGA       CLOUDY    39  36  87 MISG      29.99R
LARAMIE        CLOUDY    40  37  89 NW8       29.94R WCI  34
CHEYENNE       LGT RAIN  44  40  85 NW6       29.90R
TORRINGTON     LGT RAIN  49  48  97 W7        29.84S
PINE BLUFFS    DRIZZLE   45  45 100 NW12      29.88S

$$


USA.gov is the U.S. government's official web portal to all federal, state and local government web resources and services.